| time (UTC) | temp F | wind direction | speed knots | gust knots | rain 1hr in | rain 24hr in | rain mn in | humidity % | barometer mb |
| 20260508004513 | 45 | 0.0 | 0.0 | 0.00 | 0.00 | 0.00 | 65 | 1009.2 | |
| 20260508003012 | 46 | 0.0 | 0.0 | 0.00 | 0.00 | 0.00 | 62 | 1009.1 | |
| 20260508001514 | 47 | 0.0 | 0.0 | 0.00 | 0.00 | 0.00 | 61 | 1009.0 | |
| 20260508000011 | 47 | 0.0 | 0.0 | 0.00 | 0.00 | 0.00 | 59 | 1008.9 | |
| 20260507234518 | 48 | 0.0 | 0.0 | 0.00 | 0.00 | 0.00 | 58 | 1008.8 | |
| 20260507233014 | 48 | 0.0 | 0.0 | 0.00 | 0.00 | 0.00 | 58 | 1008.7 | |
| 20260507231509 | 49 | 0.0 | 0.0 | 0.00 | 0.00 | 0.00 | 55 | 1008.6 | |
| 20260507230014 | 50 | 0.0 | 0.0 | 0.00 | 0.00 | 0.00 | 53 | 1008.7 | |
| 20260507224509 | 50 | 0.0 | 0.0 | 0.00 | 0.00 | 0.00 | 54 | 1008.6 | |
| 20260507223009 | 50 | 0.0 | 0.0 | 0.00 | 0.00 | 0.00 | 54 | 1008.5 | |
| 20260507221506 | 50 | 0.0 | 0.0 | 0.00 | 0.00 | 0.00 | 55 | 1008.5 | |
| 20260507220005 | 50 | 0.0 | 0.0 | 0.00 | 0.00 | 0.00 | 54 | 1008.6 | |
| 20260507214504 | 51 | 0.0 | 0.0 | 0.00 | 0.00 | 0.00 | 52 | 1008.7 | |
| 20260507213007 | 51 | 0.0 | 0.0 | 0.00 | 0.00 | 0.00 | 50 | 1008.8 | |
| 20260507211503 | 51 | 0.0 | 0.0 | 0.00 | 0.00 | 0.00 | 55 | 1008.7 | |
| 20260507210003 | 51 | 0.0 | 0.0 | 0.00 | 0.00 | 0.00 | 52 | 1008.8 | |
| 20260507204501 | 51 | 0.0 | 0.0 | 0.00 | 0.01 | 0.00 | 53 | 1008.7 | |
| 20260507203002 | 53 | 0.0 | 0.0 | 0.00 | 0.01 | 0.00 | 48 | 1008.8 | |
| 20260507201601 | 53 | 0.0 | 0.0 | 0.00 | 0.01 | 0.00 | 49 | 1008.7 | |
| 20260507200106 | 53 | 0.0 | 0.0 | 0.00 | 0.01 | 0.00 | 47 | 1008.8 | |
| 20260507194601 | 53 | 0.0 | 0.0 | 0.00 | 0.01 | 0.00 | 49 | 1008.9 | |
| 20260507193057 | 53 | 0.0 | 0.0 | 0.00 | 0.01 | 0.00 | 49 | 1009.1 | |
| 20260507191556 | 52 | 0.0 | 0.0 | 0.00 | 0.01 | 0.00 | 48 | 1009.1 | |
| 20260507190106 | 53 | 0.0 | 0.0 | 0.00 | 0.01 | 0.00 | 50 | 1009.4 | |
| 20260507184552 | 52 | 0.0 | 0.0 | 0.00 | 0.01 | 0.00 | 50 | 1009.2 | |
| 20260507183111 | 51 | 0.0 | 0.0 | 0.00 | 0.01 | 0.00 | 50 | 1009.5 | |
| 20260507181556 | 50 | 0.0 | 0.0 | 0.00 | 0.01 | 0.00 | 53 | 1009.7 | |
| 20260507180052 | 50 | 0.0 | 0.0 | 0.00 | 0.01 | 0.00 | 56 | 1009.9 | |
| 20260507174559 | 50 | 0.0 | 0.0 | 0.00 | 0.02 | 0.00 | 53 | 1010.0 | |
| 20260507173050 | 50 | 0.0 | 0.0 | 0.00 | 0.02 | 0.00 | 56 | 1010.0 | |
| 20260507171547 | 51 | 0.0 | 0.0 | 0.00 | 0.02 | 0.00 | 52 | 1010.3 | |
| 20260507170047 | 52 | 0.0 | 0.0 | 0.00 | 0.02 | 0.00 | 51 | 1010.1 | |
| 20260507164600 | 51 | 0.0 | 0.0 | 0.00 | 0.04 | 0.00 | 56 | 1010.3 | |
| 20260507163039 | 50 | 0.0 | 0.0 | 0.00 | 0.04 | 0.00 | 53 | 1010.6 | |
| 20260507161550 | 50 | 0.0 | 0.0 | 0.00 | 0.04 | 0.00 | 53 | 1010.8 | |
| 20260507160141 | 50 | 0.0 | 0.0 | 0.00 | 0.04 | 0.00 | 55 | 1010.8 | |
| 20260507154533 | 49 | 0.0 | 0.0 | 0.00 | 0.10 | 0.00 | 61 | 1011.0 | |
| 20260507153035 | 48 | 0.0 | 0.0 | 0.00 | 0.10 | 0.00 | 60 | 1011.1 | |
| 20260507151531 | 47 | 0.0 | 0.0 | 0.00 | 0.10 | 0.00 | 57 | 1011.2 | |
| 20260507150032 | 46 | 0.0 | 0.0 | 0.00 | 0.10 | 0.00 | 62 | 1011.5 | |
| 20260507144532 | 45 | 0.0 | 0.0 | 0.00 | 0.10 | 0.00 | 64 | 1011.6 | |
| 20260507143022 | 45 | 0.0 | 0.0 | 0.00 | 0.10 | 0.00 | 65 | 1011.6 | |
| 20260507141518 | 44 | 0.0 | 0.0 | 0.00 | 0.10 | 0.00 | 66 | 1011.7 | |
| 20260507140018 | 43 | 0.0 | 0.0 | 0.00 | 0.10 | 0.00 | 68 | 1011.8 | |
| 20260507134508 | 43 | 0.0 | 0.0 | 0.00 | 0.10 | 0.00 | 73 | 1011.7 | |
| 20260507133008 | 42 | 0.0 | 0.0 | 0.00 | 0.10 | 0.00 | 76 | 1011.8 | |
| 20260507131607 | 41 | 0.0 | 0.0 | 0.00 | 0.10 | 0.00 | 79 | 1011.8 | |
| 20260507130006 | 41 | 0.0 | 0.0 | 0.00 | 0.10 | 0.00 | 77 | 1011.7 | |
| 20260507124509 | 40 | 0.0 | 0.0 | 0.00 | 0.10 | 0.00 | 78 | 1011.8 | |
| 20260507123003 | 39 | 0.0 | 0.0 | 0.00 | 0.10 | 0.00 | 81 | 1011.8 | |
| 20260507121505 | 39 | 0.0 | 0.0 | 0.00 | 0.10 | 0.00 | 79 | 1011.7 | |
| 20260507120100 | 38 | 0.0 | 0.0 | 0.00 | 0.10 | 0.00 | 82 | 1011.7 | |
| 20260507114609 | 38 | 0.0 | 0.0 | 0.00 | 0.10 | 0.00 | 83 | 1011.6 | |
| 20260507113126 | 37 | 0.0 | 0.0 | 0.00 | 0.10 | 0.00 | 85 | 1011.3 | |
| 20260507111558 | 37 | 0.0 | 0.0 | 0.00 | 0.10 | 0.00 | 88 | 1011.4 | |
| 20260507110053 | 36 | 0.0 | 0.0 | 0.00 | 0.10 | 0.00 | 88 | 1011.3 | |
| 20260507104551 | 36 | 0.0 | 0.0 | 0.00 | 0.10 | 0.00 | 89 | 1011.0 | |
| 20260507103054 | 0 | 0.0 | 0.0 | 0.00 | 0.10 | 0.00 | 1010.9 | ||
| 20260507101550 | 0 | 0.0 | 0.0 | 0.00 | 0.10 | 0.00 | 1010.8 | ||
| 20260507100046 | 0 | 0.0 | 0.0 | 0.00 | 0.10 | 0.00 | 1010.8 | ||
| 20260507094542 | 0 | 0.0 | 0.0 | 0.00 | 0.10 | 0.00 | 1010.7 | ||
| 20260507093036 | 0 | 0.0 | 0.0 | 0.00 | 0.10 | 0.00 | 1010.7 | ||
| 20260507091536 | 0 | 0.0 | 0.0 | 0.00 | 0.10 | 0.00 | 1010.7 | ||
| 20260507090028 | 0 | 0.0 | 0.0 | 0.00 | 0.10 | 0.00 | 1010.8 | ||
| 20260507084529 | 0 | 0.0 | 0.0 | 0.00 | 0.10 | 0.00 | 1010.9 | ||
| 20260507083019 | 0 | 0.0 | 0.0 | 0.00 | 0.10 | 0.00 | 1010.9 | ||
| 20260507081527 | 38 | 0.0 | 0.0 | 0.00 | 0.10 | 0.00 | 89 | 1010.7 | |
| 20260507080016 | 39 | 0.0 | 0.0 | 0.00 | 0.10 | 0.00 | 88 | 1010.8 | |
| 20260507074516 | 39 | 0.0 | 0.0 | 0.00 | 0.10 | 0.00 | 89 | 1010.8 | |
| 20260507073013 | 39 | 0.0 | 0.0 | 0.00 | 0.10 | 0.00 | 89 | 1010.8 | |
| 20260507071511 | 40 | 0.0 | 0.0 | 0.00 | 0.10 | 0.00 | 90 | 1011.0 | |
| 20260507070012 | 40 | 0.0 | 0.0 | 0.00 | 0.10 | 0.00 | 90 | 1010.9 | |
| 20260507064506 | 41 | 0.0 | 0.0 | 0.00 | 0.10 | 0.00 | 89 | 1010.8 | |
| 20260507063004 | 41 | 0.0 | 0.0 | 0.00 | 0.10 | 0.00 | 89 | 1010.6 | |
| 20260507061502 | 42 | 0.0 | 0.0 | 0.00 | 0.10 | 0.00 | 91 | 1010.4 | |
| 20260507060200 | 42 | 0.0 | 0.0 | 0.00 | 0.10 | 0.00 | 92 | 1010.2 | |
| 20260507054600 | 43 | 0.0 | 0.0 | 0.00 | 0.10 | 0.00 | 94 | 1010.2 | |
| 20260507053059 | 43 | 0.0 | 0.0 | 0.00 | 0.10 | 0.00 | 95 | 1009.7 | |
| 20260507051557 | 42 | 0.0 | 0.0 | 0.00 | 0.10 | 0.00 | 95 | 1009.9 | |
| 20260507050056 | 42 | 0.0 | 0.0 | 0.00 | 0.10 | 0.00 | 95 | 1010.1 | |
| 20260507044609 | 42 | 0.0 | 0.0 | 0.00 | 0.10 | 0.00 | 95 | 1010.2 | |
| 20260507043104 | 42 | 0.0 | 0.0 | 0.00 | 0.10 | 0.00 | 95 | 1010.3 | |
| 20260507041557 | 42 | 0.0 | 0.0 | 0.00 | 0.10 | 0.00 | 94 | 1010.0 | |
| 20260507040049 | 42 | 0.0 | 0.0 | 0.00 | 0.10 | 0.00 | 94 | 1010.0 | |
| 20260507034552 | 42 | 0.0 | 0.0 | 0.00 | 0.10 | 0.10 | 94 | 1009.7 | |
| 20260507033047 | 42 | 0.0 | 0.0 | 0.00 | 0.10 | 0.10 | 94 | 1009.6 | |
| 20260507031548 | 42 | 0.0 | 0.0 | 0.00 | 0.10 | 0.10 | 94 | 1009.9 | |
| 20260507030047 | 42 | 0.0 | 0.0 | 0.00 | 0.10 | 0.10 | 94 | 1009.6 | |
| 20260507024551 | 42 | 0.0 | 0.0 | 0.00 | 0.10 | 0.10 | 93 | 1010.1 | |
| 20260507023057 | 42 | 0.0 | 0.0 | 0.00 | 0.10 | 0.10 | 94 | 1009.7 | |
| 20260507021543 | 42 | 0.0 | 0.0 | 0.00 | 0.10 | 0.10 | 94 | 1010.4 | |
| 20260507020050 | 42 | 0.0 | 0.0 | 0.00 | 0.10 | 0.10 | 93 | 1010.2 | |
| 20260507014541 | 42 | 0.0 | 0.0 | 0.00 | 0.10 | 0.10 | 93 | 1010.0 | |
| 20260507013040 | 42 | 0.0 | 0.0 | 0.00 | 0.10 | 0.10 | 93 | 1010.0 | |
| 20260507011545 | 42 | 0.0 | 0.0 | 0.00 | 0.10 | 0.10 | 93 | 1010.1 | |
| 20260507010038 | 43 | 0.0 | 0.0 | 0.00 | 0.10 | 0.10 | 93 | 1009.9 |